Tracking 27380 objects as of 5-Jun-2023
HD Live streaming from Space Station
objects crossing your sky now

DELTA 1 DEB

Track DELTA 1 DEB now!
10-day predictions


NORAD ID: 39096
Int'l Code: 1973-086HJ
Perigee: 1,464.5 km
Apogee: 1,585.9 km
Inclination: 101.3 °
Period: 116.4 minutes
Semi major axis: 7896 km
RCS: 0.0093 m2 (small)
Launch date: November 6, 1973
Source: United States (US)
Launch site: AIR FORCE WESTERN TEST RANGE (AFWTR)

Note: This is SATELLITE DEBRIS
Your satellite tracking list
Your tracking list is empty




NASA's NSSDC Master Catalog

Two Line Element Set (TLE):
1 39096U 73086HJ  23155.19647665  .00000340  00000-0  29263-2 0  9992
2 39096 101.3235 128.5905 0076880 315.2863  44.2021 12.37293087420237
Source of the keplerian elements: AFSPC